Soldotna, AK

7:10 PM AKDT on October 18, 2017 (GMT -0800)
Soldotna

Weather History for PASX - September, 2012

Change the Weather History Date:

Thursday, September 20, 2012

  Actual Average Record
Temperature  
Mean Temperature 50 °F -  
Max Temperature 53 °F 53 °F 61 °F (1974)
Min Temperature 48 °F 38 °F 24 °F (2013)
Degree Days  
Heating Degree Days 14    
Moisture  
Dew Point 49 °F    
Average Humidity 95    
Maximum Humidity 100    
Minimum Humidity 82    
Precipitation  
Precipitation 0.00 in - - ()
Sea Level Pressure  
Sea Level Pressure 29.65 in    
Wind  
Wind Speed 2 mph (ENE)    
Max Wind Speed 7 mph    
Max Gust Speed -    
Visibility 9 miles    
Events      
Averages and records for this station are not official NWS values.
T = Trace of Precipitation, MM = Missing Value Source: NWS Daily Summary

Daily Weather History Graph

Daily Weather History Graph

Search for Another Location

Airport or City:

Trip Planner

Search our weather history database for the weather conditions in past years. The results will help you decide how hot, cold, wet, or windy it might be!

Date:

Astronomy

Sep. 20, 2012 Rise Set
Actual Time 7:45 AM AKDT 8:07 PM AKDT
Civil Twilight 7:02 AM AKDT 8:50 PM AKDT
Nautical Twilight 6:11 AM AKDT 9:41 PM AKDT
Astronomical Twilight 5:14 AM AKDT 10:37 PM AKDT
Moon 2:55 PM AKDT (9/20) 9:37 PM AKDT (9/20)
Length of Visible Light 13h 47m
Length of Day
12h 22m
Waxing Crescent, 28% of the Moon is Illuminated
Sep 20
Waxing Crescent
Sep 22
First Quarter
Sep 29
Full
Oct 7
Last Quarter
Oct 15
New

Hourly Weather History & Observations

Time (AKDT) Temp. Dew Point Humidity Pressure Visibility Wind Dir Wind Speed Gust Speed Precip Events Conditions
12:16 AM 50.0 °F 48.2 °F 94% 29.62 in 10.0 mi Calm Calm - N/A   Mostly Cloudy
12:36 AM 50.0 °F 48.2 °F 94% 29.63 in 10.0 mi Calm Calm - N/A   Mostly Cloudy
12:56 AM 50.0 °F 48.2 °F 94% 29.64 in 10.0 mi SW 3.5 mph - N/A   Scattered Clouds
1:16 AM 48.2 °F 46.4 °F 93% 29.65 in 10.0 mi Calm Calm - N/A   Scattered Clouds
1:36 AM 48.2 °F 48.2 °F 100% 29.65 in 2.5 mi Calm Calm - N/A   Mostly Cloudy
1:56 AM 51.8 °F 48.2 °F 88% 29.66 in 10.0 mi West 6.9 mph - N/A   Overcast
2:16 AM 50.0 °F 48.2 °F 94% 29.66 in 10.0 mi West 6.9 mph - N/A   Mostly Cloudy
2:36 AM 50.0 °F 48.2 °F 94% 29.67 in 10.0 mi West 3.5 mph - N/A   Overcast
2:56 AM 50.0 °F 48.2 °F 94% 29.68 in 10.0 mi East 3.5 mph - N/A   Overcast
3:16 AM 50.0 °F 48.2 °F 94% 29.68 in 10.0 mi ESE 3.5 mph - N/A   Overcast
3:36 AM 50.0 °F 48.2 °F 94% 29.69 in 10.0 mi East 3.5 mph - N/A   Overcast
3:56 AM 50.0 °F 48.2 °F 94% 29.68 in 10.0 mi NE 3.5 mph - N/A   Mostly Cloudy
4:16 AM 48.2 °F 48.2 °F 100% 29.69 in 10.0 mi Calm Calm - N/A   Overcast
4:36 AM 48.2 °F 46.4 °F 93% 29.70 in 10.0 mi ENE 3.5 mph - N/A   Overcast
4:56 AM 48.2 °F 48.2 °F 100% 29.69 in 10.0 mi Calm Calm - N/A   Overcast
5:16 AM 48.2 °F 48.2 °F 100% 29.70 in 10.0 mi WNW 3.5 mph - N/A   Overcast
5:36 AM 48.2 °F 48.2 °F 100% 29.70 in 10.0 mi West 3.5 mph - N/A   Overcast
5:56 AM 48.2 °F 48.2 °F 100% 29.70 in 8.0 mi Calm Calm - N/A   Scattered Clouds
6:16 AM 48.2 °F 48.2 °F 100% 29.69 in 6.0 mi Calm Calm - N/A   Clear
6:36 AM 48.2 °F 48.2 °F 100% 29.69 in 10.0 mi Calm Calm - N/A   Mostly Cloudy
6:56 AM 48.2 °F 48.2 °F 100% 29.69 in 5.0 mi Calm Calm - N/A   Mostly Cloudy
7:16 AM 48.2 °F 46.4 °F 93% 29.69 in 10.0 mi Calm Calm - N/A   Mostly Cloudy
7:36 AM 48.2 °F 48.2 °F 100% 29.69 in 2.5 mi Calm Calm - N/A   Overcast
7:56 AM 48.2 °F 46.4 °F 93% 29.69 in 8.0 mi Calm Calm - N/A   Overcast
8:16 AM 48.2 °F 46.4 °F 93% 29.69 in 7.0 mi Calm Calm - N/A   Overcast
8:36 AM 48.2 °F 48.2 °F 100% 29.68 in 5.0 mi Calm Calm - N/A   Mostly Cloudy
8:56 AM 48.2 °F 48.2 °F 100% 29.68 in 7.0 mi Calm Calm - N/A   Mostly Cloudy
9:16 AM 48.2 °F 46.4 °F 93% 29.67 in 9.0 mi Calm Calm - N/A   Overcast
9:36 AM 50.0 °F 48.2 °F 94% 29.66 in 10.0 mi Calm Calm - N/A   Mostly Cloudy
9:56 AM 50.0 °F 48.2 °F 94% 29.66 in 9.0 mi Calm Calm - N/A   Mostly Cloudy
10:16 AM 50.0 °F 48.2 °F 94% 29.65 in 8.0 mi Calm Calm - N/A   Mostly Cloudy
10:36 AM 50.0 °F 48.2 °F 94% 29.65 in 10.0 mi Calm Calm - N/A   Mostly Cloudy
10:56 AM 50.0 °F 48.2 °F 94% 29.65 in 10.0 mi Calm Calm - N/A   Overcast
11:16 AM 51.8 °F 48.2 °F 88% 29.65 in 10.0 mi North 3.5 mph - N/A   Overcast
11:36 AM 51.8 °F 50.0 °F 94% 29.64 in 10.0 mi Calm Calm - N/A   Overcast
11:56 AM 51.8 °F 50.0 °F 94% 29.64 in 10.0 mi North 4.6 mph - N/A   Overcast
12:16 PM 51.8 °F 48.2 °F 88% 29.64 in 10.0 mi North 4.6 mph - N/A   Overcast
12:36 PM 51.8 °F 50.0 °F 94% 29.63 in 10.0 mi NNE 3.5 mph - N/A   Overcast
12:56 PM 51.8 °F 50.0 °F 94% 29.63 in 10.0 mi Calm Calm - N/A   Overcast
1:16 PM 51.8 °F 51.8 °F 100% 29.62 in 10.0 mi Calm Calm - N/A   Overcast
1:36 PM 51.8 °F 51.8 °F 100% 29.62 in 10.0 mi Calm Calm - N/A   Overcast
1:56 PM 51.8 °F 51.8 °F 100% 29.63 in 10.0 mi Calm Calm - N/A   Overcast
2:16 PM 53.6 °F 51.8 °F 94% 29.62 in 10.0 mi WNW 3.5 mph - N/A   Overcast
2:36 PM 53.6 °F 51.8 °F 94% 29.62 in 10.0 mi Calm Calm - N/A   Overcast
2:56 PM 53.6 °F 51.8 °F 94% 29.62 in 10.0 mi Calm Calm - N/A   Overcast
3:16 PM 53.6 °F 51.8 °F 94% 29.62 in 10.0 mi Calm Calm - N/A   Overcast
3:36 PM 53.6 °F 51.8 °F 94% 29.62 in 10.0 mi East 4.6 mph - N/A   Overcast
3:56 PM 53.6 °F 51.8 °F 94% 29.62 in 7.0 mi Calm Calm - N/A   Overcast
4:16 PM 53.6 °F 51.8 °F 94% 29.62 in 9.0 mi Calm Calm - N/A   Overcast
4:36 PM 53.6 °F 51.8 °F 94% 29.61 in 10.0 mi NNE 4.6 mph - N/A   Overcast
4:56 PM 53.6 °F 53.6 °F 100% 29.60 in 10.0 mi Calm Calm - N/A   Overcast
5:16 PM 53.6 °F 53.6 °F 100% 29.60 in 10.0 mi Calm Calm - N/A   Overcast
5:36 PM 53.6 °F 53.6 °F 100% 29.60 in 10.0 mi Calm Calm - N/A   Overcast
5:56 PM 53.6 °F 51.8 °F 94% 29.60 in 10.0 mi Calm Calm - N/A   Overcast
6:16 PM 53.6 °F 53.6 °F 100% 29.60 in 9.0 mi East 5.8 mph - N/A   Overcast
6:36 PM 53.6 °F 51.8 °F 94% 29.59 in 10.0 mi Calm Calm - N/A   Overcast
6:56 PM 53.6 °F 51.8 °F 94% 29.59 in 7.0 mi Calm Calm - N/A   Overcast
7:16 PM 53.6 °F 51.8 °F 94% 29.60 in 6.0 mi Calm Calm - N/A   Mostly Cloudy
7:36 PM 53.6 °F 51.8 °F 94% 29.60 in 10.0 mi Calm Calm - N/A   Mostly Cloudy
7:56 PM 51.8 °F 51.8 °F 100% 29.61 in 9.0 mi Calm Calm - N/A   Mostly Cloudy
8:36 PM 51.8 °F 50.0 °F 94% 29.62 in 10.0 mi Calm Calm - N/A   Mostly Cloudy
8:56 PM 51.8 °F 50.0 °F 94% 29.62 in 10.0 mi Calm Calm - N/A   Mostly Cloudy
9:16 PM 51.8 °F 50.0 °F 94% 29.64 in 10.0 mi Calm Calm - N/A   Mostly Cloudy
9:36 PM 51.8 °F 50.0 °F 94% 29.65 in 10.0 mi East 3.5 mph - N/A   Overcast
9:56 PM 51.8 °F 48.2 °F 88% 29.65 in 10.0 mi SE 3.5 mph - N/A   Overcast
10:16 PM 51.8 °F 48.2 °F 88% 29.66 in 10.0 mi South 4.6 mph - N/A   Overcast
10:36 PM 51.8 °F 46.4 °F 82% 29.67 in 10.0 mi SSE 5.8 mph - N/A   Overcast
10:56 PM 50.0 °F 46.4 °F 87% 29.66 in 10.0 mi East 5.8 mph - N/A   Overcast
11:16 PM 50.0 °F 46.4 °F 87% 29.67 in 10.0 mi South 3.5 mph - N/A   Overcast
11:36 PM 48.2 °F 46.4 °F 93% 29.66 in 10.0 mi ESE 5.8 mph - N/A   Overcast
11:56 PM 48.2 °F 46.4 °F 93% 29.67 in 10.0 mi West 3.5 mph - N/A   Overcast